Saint Bonnet de Bellac- Haute Vienne - France
Donnes mto: lundi, 07/05/2012
Date Horaire Temp. E. Hum. E. P.atmo. Pluie Vent Direction Direction Ensoleilleme Solaire P. de rose Temp au vent Rafales
07/05/2012 00:00 7,3 C 85 % 1015,7 hPa 0,0 mm 0,0 km/h (0 Bft) SO 225 0 min 0 W/m 4,9 C 7,3 C 0,0 km/h (0 Bft)
07/05/2012 00:10 7,2 C 85 % 1015,8 hPa 0,0 mm 0,4 km/h (0 Bft) S-SO 202 0 min 0 W/m 4,9 C 7,2 C 0,4 km/h (0 Bft)
07/05/2012 00:20 7,1 C 85 % 1015,9 hPa 0,0 mm 0,4 km/h (0 Bft) SO 225 0 min 0 W/m 4,8 C 7,1 C 3,6 km/h (1 Bft)
07/05/2012 00:30 7,1 C 85 % 1016,0 hPa 0,0 mm 0,0 km/h (0 Bft) O-SO 247 0 min 0 W/m 4,8 C 7,1 C 0,0 km/h (0 Bft)
07/05/2012 00:40 6,9 C 85 % 1016,0 hPa 0,0 mm 1,1 km/h (1 Bft) S-SO 202 0 min 0 W/m 4,6 C 6,9 C 3,6 km/h (1 Bft)
07/05/2012 00:50 6,9 C 86 % 1016,1 hPa 0,0 mm 1,1 km/h (1 Bft) S-SO 202 0 min 0 W/m 4,7 C 6,9 C 4,0 km/h (1 Bft)
07/05/2012 01:00 6,9 C 86 % 1016,1 hPa 0,0 mm 0,0 km/h (0 Bft) S-SO 202 0 min 0 W/m 4,7 C 6,9 C 3,6 km/h (1 Bft)
07/05/2012 01:10 6,8 C 86 % 1016,2 hPa 0,0 mm 0,0 km/h (0 Bft) S-SO 202 0 min 0 W/m 4,6 C 6,8 C 0,0 km/h (0 Bft)
07/05/2012 01:20 6,5 C 86 % 1016,2 hPa 0,0 mm 0,0 km/h (0 Bft) SO 225 0 min 0 W/m 4,3 C 6,5 C 0,0 km/h (0 Bft)
07/05/2012 01:30 6,4 C 86 % 1016,2 hPa 0,0 mm 0,0 km/h (0 Bft) S 180 0 min 0 W/m 4,2 C 6,4 C 0,0 km/h (0 Bft)
07/05/2012 01:40 6,3 C 86 % 1016,2 hPa 0,0 mm 1,4 km/h (1 Bft) S 180 0 min 0 W/m 4,1 C 6,3 C 3,6 km/h (1 Bft)
07/05/2012 01:50 6,2 C 87 % 1016,3 hPa 0,0 mm 0,0 km/h (0 Bft) S-SO 202 0 min 0 W/m 4,2 C 6,2 C 3,2 km/h (1 Bft)
07/05/2012 02:00 6,1 C 88 % 1016,2 hPa 0,0 mm 0,0 km/h (0 Bft) S-SO 202 0 min 0 W/m 4,3 C 6,1 C 0,0 km/h (0 Bft)
07/05/2012 02:10 6,1 C 88 % 1016,3 hPa 0,0 mm 0,0 km/h (0 Bft) SO 225 0 min 0 W/m 4,3 C 6,1 C 0,0 km/h (0 Bft)
07/05/2012 02:20 6,0 C 88 % 1016,2 hPa 0,0 mm 0,0 km/h (0 Bft) S-SO 202 0 min 0 W/m 4,2 C 6,0 C 0,0 km/h (0 Bft)
07/05/2012 02:30 5,9 C 89 % 1016,2 hPa 0,0 mm 0,7 km/h (0 Bft) S-SO 202 0 min 0 W/m 4,2 C 5,9 C 3,6 km/h (1 Bft)
07/05/2012 02:40 5,8 C 89 % 1016,1 hPa 0,0 mm 0,0 km/h (0 Bft) S-SO 202 0 min 0 W/m 4,1 C 5,8 C 0,0 km/h (0 Bft)
07/05/2012 02:50 5,8 C 89 % 1016,2 hPa 0,0 mm 0,4 km/h (0 Bft) S-SO 202 0 min 0 W/m 4,1 C 5,8 C 0,4 km/h (0 Bft)
07/05/2012 03:02 5,7 C 90 % 1016,0 hPa 0,0 mm 0,0 km/h (0 Bft) S-SO 202 0 min 0 W/m 4,2 C 5,7 C 3,2 km/h (1 Bft)
07/05/2012 03:10 5,6 C 89 % 1016,0 hPa 0,0 mm 0,0 km/h (0 Bft) S-SO 202 0 min 0 W/m 3,9 C 5,6 C 0,0 km/h (0 Bft)
07/05/2012 03:20 5,5 C 89 % 1015,9 hPa 0,0 mm 0,0 km/h (0 Bft) S-SO 202 0 min 0 W/m 3,8 C 5,5 C 0,0 km/h (0 Bft)
07/05/2012 03:30 5,4 C 89 % 1015,8 hPa 0,0 mm 0,0 km/h (0 Bft) S 180 0 min 0 W/m 3,7 C 5,4 C 0,0 km/h (0 Bft)
07/05/2012 03:40 5,2 C 89 % 1015,9 hPa 0,0 mm 0,0 km/h (0 Bft) S 180 0 min 0 W/m 3,5 C 5,2 C 0,0 km/h (0 Bft)
07/05/2012 03:50 5,1 C 89 % 1015,9 hPa 0,0 mm 0,0 km/h (0 Bft) S 180 0 min 0 W/m 3,4 C 5,1 C 0,0 km/h (0 Bft)
07/05/2012 04:00 4,9 C 89 % 1016,0 hPa 0,0 mm 0,0 km/h (0 Bft) S 180 0 min 0 W/m 3,2 C 4,9 C 0,0 km/h (0 Bft)
07/05/2012 04:10 4,9 C 89 % 1016,0 hPa 0,0 mm 0,0 km/h (0 Bft) S-SE 157 0 min 0 W/m 3,2 C 4,9 C 0,0 km/h (0 Bft)
07/05/2012 04:20 4,8 C 89 % 1016,0 hPa 0,0 mm 0,0 km/h (0 Bft) S-SE 157 0 min 0 W/m 3,1 C 4,8 C 0,0 km/h (0 Bft)
07/05/2012 04:30 4,6 C 89 % 1016,0 hPa 0,0 mm 0,0 km/h (0 Bft) S-SE 157 0 min 0 W/m 2,9 C 4,6 C 0,0 km/h (0 Bft)
07/05/2012 04:40 4,6 C 89 % 1016,0 hPa 0,0 mm 0,0 km/h (0 Bft) SE 135 0 min 0 W/m 2,9 C 4,6 C 0,0 km/h (0 Bft)
07/05/2012 04:50 4,5 C 89 % 1015,9 hPa 0,0 mm 0,7 km/h (0 Bft) SE 135 0 min 0 W/m 2,8 C 4,5 C 2,9 km/h (1 Bft)
07/05/2012 05:00 4,6 C 90 % 1016,0 hPa 0,0 mm 0,0 km/h (0 Bft) SE 135 0 min 0 W/m 3,1 C 4,6 C 0,0 km/h (0 Bft)
07/05/2012 05:10 4,5 C 90 % 1016,0 hPa 0,0 mm 0,0 km/h (0 Bft) SE 135 0 min 0 W/m 3,0 C 4,5 C 0,0 km/h (0 Bft)
07/05/2012 05:20 4,3 C 90 % 1016,1 hPa 0,0 mm 0,0 km/h (0 Bft) SE 135 0 min 0 W/m 2,8 C 4,3 C 0,0 km/h (0 Bft)
07/05/2012 05:30 4,1 C 90 % 1016,1 hPa 0,0 mm 0,0 km/h (0 Bft) SE 135 0 min 0 W/m 2,6 C 4,1 C 0,0 km/h (0 Bft)
07/05/2012 05:40 3,9 C 90 % 1016,1 hPa 0,0 mm 0,0 km/h (0 Bft) SE 135 0 min 0 W/m 2,4 C 3,9 C 0,0 km/h (0 Bft)
07/05/2012 05:50 3,8 C 90 % 1016,2 hPa 0,0 mm 0,0 km/h (0 Bft) SE 135 0 min 0 W/m 2,3 C 3,8 C 0,0 km/h (0 Bft)
07/05/2012 06:00 3,8 C 89 % 1016,2 hPa 0,0 mm 0,0 km/h (0 Bft) SE 135 0 min 0 W/m 2,2 C 3,8 C 0,0 km/h (0 Bft)
07/05/2012 06:10 3,8 C 90 % 1016,3 hPa 0,0 mm 0,0 km/h (0 Bft) E-NE 67 0 min 0 W/m 2,3 C 3,8 C 0,0 km/h (0 Bft)
07/05/2012 06:20 3,8 C 90 % 1016,4 hPa 0,0 mm 0,0 km/h (0 Bft) E-NE 67 0 min 0 W/m 2,3 C 3,8 C 0,0 km/h (0 Bft)
07/05/2012 06:30 3,6 C 89 % 1016,5 hPa 0,0 mm 0,0 km/h (0 Bft) E-NE 67 0 min 0 W/m 2,0 C 3,6 C 0,0 km/h (0 Bft)
07/05/2012 06:40 3,5 C 90 % 1016,6 hPa 0,0 mm 0,0 km/h (0 Bft) E-NE 67 0 min 0 W/m 2,0 C 3,5 C 0,0 km/h (0 Bft)
07/05/2012 06:50 3,4 C 90 % 1016,8 hPa 0,0 mm 0,0 km/h (0 Bft) SE 135 2 min 0 W/m 1,9 C 3,4 C 0,0 km/h (0 Bft)
07/05/2012 07:00 3,4 C 90 % 1016,8 hPa 0,0 mm 0,0 km/h (0 Bft) SE 135 2 min 0 W/m 1,9 C 3,4 C 0,0 km/h (0 Bft)
07/05/2012 07:10 3,5 C 90 % 1016,9 hPa 0,0 mm 0,0 km/h (0 Bft) SE 135 2 min 0 W/m 2,0 C 3,5 C 0,0 km/h (0 Bft)
07/05/2012 07:20 3,5 C 90 % 1017,1 hPa 0,0 mm 0,0 km/h (0 Bft) SE 135 2 min 0 W/m 2,0 C 3,5 C 0,0 km/h (0 Bft)
07/05/2012 07:30 3,6 C 90 % 1017,1 hPa 0,0 mm 0,0 km/h (0 Bft) SE 135 2 min 0 W/m 2,1 C 3,6 C 0,0 km/h (0 Bft)
07/05/2012 07:40 3,9 C 90 % 1017,2 hPa 0,0 mm 0,0 km/h (0 Bft) SE 135 2 min 0 W/m 2,4 C 3,9 C 0,0 km/h (0 Bft)
07/05/2012 07:50 4,3 C 91 % 1017,3 hPa 0,0 mm 0,0 km/h (0 Bft) SE 135 2 min 0 W/m 3,0 C 4,3 C 0,0 km/h (0 Bft)
07/05/2012 08:00 5,1 C 91 % 1017,3 hPa 0,0 mm 0,0 km/h (0 Bft) SE 135 2 min 0 W/m 3,8 C 5,1 C 0,0 km/h (0 Bft)
07/05/2012 08:10 5,8 C 91 % 1017,2 hPa 0,0 mm 0,4 km/h (0 Bft) E-SE 112 2 min 0 W/m 4,4 C 5,8 C 3,2 km/h (1 Bft)
07/05/2012 08:20 6,4 C 92 % 1017,2 hPa 0,0 mm 0,0 km/h (0 Bft) E-SE 112 2 min 0 W/m 5,2 C 6,4 C 0,0 km/h (0 Bft)
07/05/2012 08:30 6,9 C 92 % 1017,2 hPa 0,0 mm 0,0 km/h (0 Bft) E-SE 112 2 min 0 W/m 5,7 C 6,9 C 0,0 km/h (0 Bft)
07/05/2012 08:40 7,5 C 92 % 1017,2 hPa 0,0 mm 0,0 km/h (0 Bft) E-SE 112 2 min 0 W/m 6,3 C 7,5 C 0,0 km/h (0 Bft)
07/05/2012 08:50 8,1 C 92 % 1017,3 hPa 0,0 mm 0,0 km/h (0 Bft) E-SE 112 2 min 0 W/m 6,9 C 8,1 C 0,0 km/h (0 Bft)
07/05/2012 09:00 8,6 C 92 % 1017,2 hPa 0,0 mm 3,6 km/h (1 Bft) S 180 2 min 0 W/m 7,4 C 8,6 C 8,6 km/h (2 Bft)
07/05/2012 09:10 9,4 C 91 % 1017,2 hPa 0,0 mm 2,9 km/h (1 Bft) S 180 2 min 0 W/m 8,0 C 9,4 C 6,1 km/h (2 Bft)
07/05/2012 09:20 10,1 C 91 % 1017,3 hPa 0,0 mm 0,4 km/h (0 Bft) S-SE 157 2 min 0 W/m 8,7 C 10,1 C 0,4 km/h (0 Bft)
07/05/2012 09:30 10,6 C 90 % 1017,3 hPa 0,0 mm 1,4 km/h (1 Bft) E-SE 112 2 min 0 W/m 9,0 C 10,6 C 1,4 km/h (1 Bft)
07/05/2012 09:40 11,1 C 90 % 1017,3 hPa 0,0 mm 3,2 km/h (1 Bft) E-SE 112 2 min 0 W/m 9,5 C 11,1 C 4,3 km/h (1 Bft)
07/05/2012 09:50 11,6 C 88 % 1017,3 hPa 0,0 mm 2,9 km/h (1 Bft) S-SE 157 2 min 0 W/m 9,7 C 11,6 C 4,0 km/h (1 Bft)
07/05/2012 10:00 12,3 C 85 % 1017,2 hPa 0,0 mm 0,0 km/h (0 Bft) SE 135 2 min 0 W/m 9,9 C 12,3 C 0,0 km/h (0 Bft)
07/05/2012 10:10 12,9 C 83 % 1017,3 hPa 0,0 mm 1,4 km/h (1 Bft) S-SE 157 2 min 0 W/m 10,1 C 12,9 C 4,3 km/h (1 Bft)
07/05/2012 10:20 13,4 C 81 % 1017,4 hPa 0,0 mm 0,7 km/h (0 Bft) SE 135 2 min 0 W/m 10,2 C 13,4 C 3,6 km/h (1 Bft)
07/05/2012 10:30 14,1 C 77 % 1017,4 hPa 0,0 mm 3,2 km/h (1 Bft) S-SE 157 2 min 0 W/m 10,1 C 14,1 C 7,2 km/h (2 Bft)
07/05/2012 10:40 14,8 C 73 % 1017,4 hPa 0,0 mm 2,5 km/h (1 Bft) S-SO 202 2 min 0 W/m 10,0 C 14,8 C 4,0 km/h (1 Bft)
07/05/2012 10:50 15,3 C 73 % 1017,4 hPa 0,0 mm 0,0 km/h (0 Bft) E-SE 112 2 min 0 W/m 10,5 C 15,3 C 0,0 km/h (0 Bft)
07/05/2012 11:00 15,8 C 66 % 1017,5 hPa 0,0 mm 1,1 km/h (1 Bft) S-SO 202 2 min 0 W/m 9,5 C 15,8 C 3,6 km/h (1 Bft)
07/05/2012 11:10 16,1 C 65 % 1017,4 hPa 0,0 mm 4,7 km/h (1 Bft) S-SE 157 2 min 0 W/m 9,5 C 16,1 C 7,2 km/h (2 Bft)
07/05/2012 11:20 16,4 C 63 % 1017,4 hPa 0,0 mm 2,5 km/h (1 Bft) E 90 2 min 0 W/m 9,3 C 16,4 C 3,2 km/h (1 Bft)
07/05/2012 11:30 16,8 C 57 % 1017,6 hPa 0,0 mm 2,5 km/h (1 Bft) S-SO 202 2 min 0 W/m 8,2 C 16,8 C 2,5 km/h (1 Bft)
07/05/2012 11:40 17,1 C 54 % 1017,5 hPa 0,0 mm 5,0 km/h (1 Bft) S-SO 202 2 min 0 W/m 7,7 C 17,1 C 9,0 km/h (2 Bft)
07/05/2012 11:50 17,3 C 53 % 1017,5 hPa 0,0 mm 2,2 km/h (1 Bft) S-SE 157 2 min 0 W/m 7,6 C 17,3 C 4,0 km/h (1 Bft)
07/05/2012 12:00 17,8 C 52 % 1017,5 hPa 0,0 mm 6,5 km/h (2 Bft) S 180 2 min 0 W/m 7,8 C 17,8 C 9,0 km/h (2 Bft)
07/05/2012 12:10 18,1 C 49 % 1017,4 hPa 0,0 mm 4,0 km/h (1 Bft) S-SO 202 2 min 0 W/m 7,2 C 18,1 C 4,3 km/h (1 Bft)
07/05/2012 12:20 18,4 C 50 % 1017,4 hPa 0,0 mm 0,0 km/h (0 Bft) E 90 2 min 0 W/m 7,8 C 18,4 C 0,0 km/h (0 Bft)
07/05/2012 12:30 18,6 C 47 % 1017,3 hPa 0,0 mm 0,7 km/h (0 Bft) SO 225 2 min 0 W/m 7,1 C 18,6 C 3,2 km/h (1 Bft)
07/05/2012 12:40 18,4 C 47 % 1017,2 hPa 0,0 mm 3,6 km/h (1 Bft) SO 225 2 min 0 W/m 6,9 C 18,4 C 7,6 km/h (2 Bft)
07/05/2012 12:50 18,3 C 47 % 1017,2 hPa 0,0 mm 2,2 km/h (1 Bft) SO 225 2 min 0 W/m 6,8 C 18,3 C 7,2 km/h (2 Bft)
07/05/2012 13:00 18,3 C 46 % 1017,2 hPa 0,0 mm 2,5 km/h (1 Bft) SO 225 2 min 0 W/m 6,5 C 18,3 C 3,6 km/h (1 Bft)
07/05/2012 13:10 18,4 C 47 % 1017,2 hPa 0,0 mm 1,8 km/h (1 Bft) SO 225 2 min 0 W/m 6,9 C 18,4 C 6,5 km/h (2 Bft)
07/05/2012 13:20 18,4 C 50 % 1017,0 hPa 0,0 mm 4,0 km/h (1 Bft) S-SE 157 2 min 0 W/m 7,8 C 18,4 C 10,8 km/h (2 Bft)
07/05/2012 13:30 18,7 C 47 % 1016,8 hPa 0,0 mm 2,9 km/h (1 Bft) S-SO 202 2 min 0 W/m 7,2 C 18,7 C 7,2 km/h (2 Bft)
07/05/2012 13:40 18,6 C 47 % 1016,8 hPa 0,0 mm 0,7 km/h (0 Bft) S-SO 202 2 min 0 W/m 7,1 C 18,6 C 8,3 km/h (2 Bft)
07/05/2012 13:50 18,6 C 51 % 1016,8 hPa 0,0 mm 7,2 km/h (2 Bft) SO 225 2 min 0 W/m 8,3 C 18,6 C 8,6 km/h (2 Bft)
07/05/2012 14:00 18,4 C 47 % 1016,5 hPa 0,0 mm 3,6 km/h (1 Bft) SO 225 2 min 0 W/m 6,9 C 18,4 C 6,5 km/h (2 Bft)
07/05/2012 14:10 18,6 C 50 % 1016,4 hPa 0,0 mm 4,7 km/h (1 Bft) S-SE 157 2 min 0 W/m 8,0 C 18,6 C 4,7 km/h (1 Bft)
07/05/2012 14:20 18,9 C 50 % 1016,4 hPa 0,0 mm 2,5 km/h (1 Bft) S 180 2 min 0 W/m 8,2 C 18,9 C 2,5 km/h (1 Bft)
07/05/2012 14:30 19,2 C 50 % 1016,3 hPa 0,0 mm 0,0 km/h (0 Bft) O-SO 247 2 min 0 W/m 8,5 C 19,2 C 0,0 km/h (0 Bft)
07/05/2012 14:40 19,5 C 49 % 1016,2 hPa 0,0 mm 3,2 km/h (1 Bft) O 270 2 min 0 W/m 8,5 C 19,5 C 3,2 km/h (1 Bft)
07/05/2012 14:50 19,5 C 48 % 1016,1 hPa 0,0 mm 6,1 km/h (2 Bft) O-SO 247 2 min 0 W/m 8,2 C 19,5 C 8,6 km/h (2 Bft)
07/05/2012 15:00 19,5 C 48 % 1016,0 hPa 0,0 mm 9,0 km/h (2 Bft) SO 225 2 min 0 W/m 8,2 C 19,5 C 16,2 km/h (3 Bft)
07/05/2012 15:10 19,8 C 46 % 1015,9 hPa 0,0 mm 6,1 km/h (2 Bft) O-SO 247 2 min 0 W/m 7,8 C 19,8 C 9,0 km/h (2 Bft)
07/05/2012 15:20 20,0 C 47 % 1015,8 hPa 0,0 mm 2,5 km/h (1 Bft) S-SO 202 2 min 0 W/m 8,3 C 20,0 C 3,6 km/h (1 Bft)
07/05/2012 15:30 20,2 C 46 % 1015,7 hPa 0,0 mm 6,8 km/h (2 Bft) SO 225 2 min 0 W/m 8,2 C 20,2 C 11,5 km/h (2 Bft)
07/05/2012 15:40 20,2 C 46 % 1015,6 hPa 0,0 mm 1,8 km/h (1 Bft) S-SO 202 2 min 0 W/m 8,2 C 20,2 C 3,6 km/h (1 Bft)
07/05/2012 15:50 19,9 C 47 % 1015,4 hPa 0,0 mm 5,8 km/h (2 Bft) O 270 2 min 0 W/m 8,3 C 19,9 C 6,8 km/h (2 Bft)
07/05/2012 16:00 19,8 C 48 % 1015,4 hPa 0,0 mm 1,4 km/h (1 Bft) SO 225 2 min 0 W/m 8,5 C 19,8 C 4,7 km/h (1 Bft)
07/05/2012 16:10 19,4 C 47 % 1015,3 hPa 0,0 mm 2,9 km/h (1 Bft) S-SO 202 2 min 0 W/m 7,8 C 19,4 C 4,0 km/h (1 Bft)
07/05/2012 16:20 19,3 C 48 % 1015,2 hPa 0,0 mm 5,0 km/h (1 Bft) S-SO 202 2 min 0 W/m 8,0 C 19,3 C 9,4 km/h (2 Bft)
07/05/2012 16:30 19,3 C 49 % 1015,0 hPa 0,0 mm 0,4 km/h (0 Bft) SO 225 2 min 0 W/m 8,3 C 19,3 C 4,3 km/h (1 Bft)
07/05/2012 16:40 19,6 C 47 % 1015,0 hPa 0,0 mm 4,0 km/h (1 Bft) O-SO 247 2 min 0 W/m 8,0 C 19,6 C 6,8 km/h (2 Bft)
07/05/2012 16:50 19,9 C 48 % 1014,7 hPa 0,0 mm 1,8 km/h (1 Bft) S 180 0 min 0 W/m 8,6 C 19,9 C 4,3 km/h (1 Bft)
07/05/2012 17:00 20,1 C 46 % 1014,6 hPa 0,0 mm 5,4 km/h (2 Bft) SO 225 0 min 0 W/m 8,1 C 20,1 C 10,4 km/h (2 Bft)
07/05/2012 17:10 20,1 C 46 % 1014,6 hPa 0,0 mm 3,6 km/h (1 Bft) S 180 0 min 0 W/m 8,1 C 20,1 C 5,0 km/h (1 Bft)
07/05/2012 17:20 19,8 C 47 % 1014,7 hPa 0,0 mm 5,4 km/h (2 Bft) S-SO 202 0 min 0 W/m 8,2 C 19,8 C 6,1 km/h (2 Bft)
07/05/2012 17:30 19,6 C 47 % 1014,5 hPa 0,0 mm 4,0 km/h (1 Bft) S-SE 157 0 min 0 W/m 8,0 C 19,6 C 4,0 km/h (1 Bft)
07/05/2012 17:40 19,8 C 47 % 1014,5 hPa 0,0 mm 6,1 km/h (2 Bft) S-SE 157 0 min 0 W/m 8,2 C 19,8 C 8,3 km/h (2 Bft)
07/05/2012 17:50 19,8 C 47 % 1014,4 hPa 0,0 mm 4,7 km/h (1 Bft) S 180 0 min 0 W/m 8,2 C 19,8 C 4,7 km/h (1 Bft)
07/05/2012 18:00 19,8 C 47 % 1014,2 hPa 0,0 mm 1,8 km/h (1 Bft) S-SO 202 0 min 0 W/m 8,2 C 19,8 C 2,9 km/h (1 Bft)
07/05/2012 18:10 19,9 C 47 % 1014,0 hPa 0,0 mm 4,3 km/h (1 Bft) S-SO 202 0 min 0 W/m 8,3 C 19,9 C 8,3 km/h (2 Bft)
07/05/2012 18:20 19,8 C 45 % 1014,0 hPa 0,0 mm 5,4 km/h (2 Bft) SO 225 0 min 0 W/m 7,5 C 19,8 C 7,9 km/h (2 Bft)
07/05/2012 18:30 19,6 C 46 % 1014,0 hPa 0,0 mm 1,8 km/h (1 Bft) SO 225 0 min 0 W/m 7,7 C 19,6 C 4,0 km/h (1 Bft)
07/05/2012 18:40 19,4 C 48 % 1014,1 hPa 0,0 mm 2,5 km/h (1 Bft) S 180 0 min 0 W/m 8,1 C 19,4 C 5,8 km/h (2 Bft)
07/05/2012 18:50 19,2 C 50 % 1014,0 hPa 0,0 mm 0,0 km/h (0 Bft) S-SO 202 0 min 0 W/m 8,5 C 19,2 C 0,0 km/h (0 Bft)
07/05/2012 19:00 19,1 C 50 % 1013,9 hPa 0,0 mm 1,1 km/h (1 Bft) S-SO 202 0 min 0 W/m 8,4 C 19,1 C 1,1 km/h (1 Bft)
07/05/2012 19:10 18,9 C 50 % 1013,8 hPa 0,0 mm 2,9 km/h (1 Bft) S-SE 157 0 min 0 W/m 8,2 C 18,9 C 4,3 km/h (1 Bft)
07/05/2012 19:20 18,9 C 51 % 1013,7 hPa 0,0 mm 3,2 km/h (1 Bft) S-SE 157 2 min 0 W/m 8,5 C 18,9 C 6,8 km/h (2 Bft)
07/05/2012 19:30 18,8 C 50 % 1013,7 hPa 0,0 mm 1,8 km/h (1 Bft) SE 135 2 min 0 W/m 8,2 C 18,8 C 5,8 km/h (2 Bft)
07/05/2012 19:40 18,5 C 51 % 1013,8 hPa 0,0 mm 3,2 km/h (1 Bft) S-SE 157 2 min 0 W/m 8,2 C 18,5 C 4,0 km/h (1 Bft)
07/05/2012 19:50 18,3 C 52 % 1013,8 hPa 0,0 mm 0,7 km/h (0 Bft) S-SE 157 2 min 0 W/m 8,3 C 18,3 C 0,7 km/h (0 Bft)
07/05/2012 20:00 18,1 C 53 % 1013,8 hPa 0,0 mm 0,4 km/h (0 Bft) S-SE 157 2 min 0 W/m 8,4 C 18,1 C 2,9 km/h (1 Bft)
07/05/2012 20:10 17,8 C 53 % 1013,9 hPa 0,0 mm 0,0 km/h (0 Bft) S-SE 157 2 min 0 W/m 8,1 C 17,8 C 3,2 km/h (1 Bft)
07/05/2012 20:20 17,6 C 54 % 1013,9 hPa 0,0 mm 2,5 km/h (1 Bft) SE 135 2 min 0 W/m 8,2 C 17,6 C 6,1 km/h (2 Bft)
07/05/2012 20:30 17,4 C 54 % 1014,0 hPa 0,0 mm 0,0 km/h (0 Bft) S-SE 157 2 min 0 W/m 8,0 C 17,4 C 0,0 km/h (0 Bft)
07/05/2012 20:40 17,3 C 55 % 1013,9 hPa 0,0 mm 0,0 km/h (0 Bft) SE 135 2 min 0 W/m 8,2 C 17,3 C 0,0 km/h (0 Bft)
07/05/2012 20:50 17,0 C 55 % 1013,7 hPa 0,0 mm 1,8 km/h (1 Bft) S-SE 157 2 min 0 W/m 7,9 C 17,0 C 4,3 km/h (1 Bft)
07/05/2012 21:00 16,8 C 55 % 1013,5 hPa 0,0 mm 2,2 km/h (1 Bft) SE 135 2 min 0 W/m 7,7 C 16,8 C 7,2 km/h (2 Bft)
07/05/2012 21:10 16,6 C 55 % 1013,5 hPa 0,0 mm 1,1 km/h (1 Bft) SE 135 0 min 0 W/m 7,5 C 16,6 C 6,1 km/h (2 Bft)
07/05/2012 21:20 16,4 C 55 % 1013,3 hPa 0,0 mm 4,3 km/h (1 Bft) SE 135 0 min 0 W/m 7,3 C 16,4 C 6,5 km/h (2 Bft)
07/05/2012 21:30 16,2 C 56 % 1013,2 hPa 0,0 mm 2,5 km/h (1 Bft) S-SE 157 0 min 0 W/m 7,4 C 16,2 C 4,3 km/h (1 Bft)
07/05/2012 21:40 15,9 C 57 % 1013,3 hPa 0,0 mm 1,1 km/h (1 Bft) SE 135 0 min 0 W/m 7,4 C 15,9 C 6,5 km/h (2 Bft)
07/05/2012 21:50 15,7 C 58 % 1013,3 hPa 0,0 mm 1,4 km/h (1 Bft) S-SE 157 0 min 0 W/m 7,5 C 15,7 C 4,0 km/h (1 Bft)
07/05/2012 22:00 15,6 C 58 % 1013,3 hPa 0,0 mm 3,6 km/h (1 Bft) S-SE 157 0 min 0 W/m 7,4 C 15,6 C 7,2 km/h (2 Bft)
07/05/2012 22:10 15,5 C 58 % 1013,3 hPa 0,0 mm 2,5 km/h (1 Bft) SE 135 0 min 0 W/m 7,3 C 15,5 C 8,3 km/h (2 Bft)
07/05/2012 22:20 15,4 C 59 % 1013,4 hPa 0,0 mm 3,2 km/h (1 Bft) SE 135 0 min 0 W/m 7,4 C 15,4 C 3,6 km/h (1 Bft)
07/05/2012 22:30 15,4 C 59 % 1013,4 hPa 0,0 mm 0,0 km/h (0 Bft) S-SE 157 0 min 0 W/m 7,4 C 15,4 C 0,0 km/h (0 Bft)
07/05/2012 22:40 15,3 C 59 % 1013,3 hPa 0,0 mm 0,4 km/h (0 Bft) S-SE 157 0 min 0 W/m 7,3 C 15,3 C 3,6 km/h (1 Bft)
07/05/2012 22:50 15,3 C 59 % 1013,2 hPa 0,0 mm 5,0 km/h (1 Bft) S-SE 157 0 min 0 W/m 7,3 C 15,3 C 9,4 km/h (2 Bft)
07/05/2012 23:00 15,3 C 59 % 1013,2 hPa 0,0 mm 5,0 km/h (1 Bft) N 360 0 min 0 W/m 7,3 C 15,3 C 5,0 km/h (1 Bft)
07/05/2012 23:10 15,3 C 59 % 1013,1 hPa 0,0 mm 0,7 km/h (0 Bft) S-SE 157 0 min 0 W/m 7,3 C 15,3 C 3,2 km/h (1 Bft)
07/05/2012 23:20 15,3 C 60 % 1013,2 hPa 0,0 mm 0,4 km/h (0 Bft) SE 135 0 min 0 W/m 7,6 C 15,3 C 2,9 km/h (1 Bft)
07/05/2012 23:30 15,3 C 60 % 1013,2 hPa 0,0 mm 0,4 km/h (0 Bft) S 180 0 min 0 W/m 7,6 C 15,3 C 3,2 km/h (1 Bft)
07/05/2012 23:40 15,4 C 60 % 1013,1 hPa 0,0 mm 5,0 km/h (1 Bft) S 180 0 min 0 W/m 7,7 C 15,4 C 11,5 km/h (2 Bft)
07/05/2012 23:50 15,4 C 60 % 1013,0 hPa 0,0 mm 3,2 km/h (1 Bft) S 180 0 min 0 W/m 7,7 C 15,4 C 3,2 km/h (1 Bft)
_ Min-Heure 07:00 18:20 23:50 - 22:30 - - - - 07:00 07:00 22:30
Minimum _ 3,4 C 45 % 1013,0 hPa - 0,0 km/h (0 Bft) - - - - 1,9 C 3,4 C 0,0 km/h (0 Bft)
_ Max-Heure 15:40 09:00 11:30 23:50 15:00 - - 21:00 23:50 10:50 15:40 15:00
Maximum _ 20,2 C 92 % 1017,6 hPa 0,0 mm 9,0 km/h
SO (2 Bft)
- - 2 min 0 W/m 10,5 C 20,2 C 16,2 km/h
SO (3 Bft)
Moyenne _ 12,8 C 68 % 1015,7 hPa #0,0 mm 1,8 km/h (1 Bft) S-SO - #2:22 h 0 W/m 6,4 C 12,8 C 3,5 km/h (1 Bft)
Saint Bonnet de Bellac- Haute Vienne - France